ECMWFFLT2_850_spd_030.txt.gz
Wind_Speed
4 2 0 3 5 5 4 4 2 2 3 5 4 5 6 7 8 9 10 9 9 9 9 10 10 11 15 14 15 15 12 11 12 12 13 12 13 13 15 14 13 12 14 18 15 13 13 13 9 7 6 5
7 6 5 3 1 2 3 3 3 2 1 3 3 3 4 4 5 7 8 7 8 9 8 9 10 10 12 13 17 19 15 13 13 12 13 14 13 13 13 14 12 11 13 16 16 15 13 13 10 8 6 6
8 7 7 7 7 4 3 3 3 4 3 1 0 1 1 3 3 4 6 7 6 7 8 7 8 9 9 9 13 18 19 17 15 13 14 14 14 12 11 13 12 11 13 15 16 16 14 12 11 9 6 7
9 8 8 9 8 8 7 5 4 3 4 3 3 3 3 4 4 5 6 6 6 5 5 5 5 7 7 7 9 12 17 19 18 16 15 14 15 14 12 12 12 12 13 13 16 16 14 12 11 10 7 6
11 10 9 9 9 9 9 8 6 4 3 3 4 4 4 5 6 7 7 8 7 6 5 4 3 3 4 5 7 8 11 15 17 18 19 16 14 15 14 12 10 12 12 13 15 15 15 14 12 11 8 6
13 12 11 10 10 10 10 10 9 7 6 5 4 4 4 5 7 7 7 7 8 8 6 4 3 2 1 3 4 6 9 10 10 14 19 19 16 15 15 14 11 11 11 12 14 14 15 15 13 12 9 7
15 14 13 13 12 12 12 12 11 10 10 8 7 7 6 5 6 8 8 6 5 6 7 5 3 2 1 2 3 4 6 9 9 9 13 16 15 15 15 15 13 12 12 13 14 13 14 14 13 14 11 8
17 17 17 16 15 15 14 14 14 14 14 13 12 11 9 8 7 8 9 10 7 3 2 3 3 3 2 1 3 5 5 6 8 8 9 11 12 13 14 16 16 13 12 14 14 13 13 14 13 14 13 10
20 20 20 19 19 18 17 17 17 16 17 16 16 16 14 13 10 10 10 10 10 8 7 6 6 4 4 5 4 5 7 7 8 8 9 9 10 11 12 14 16 15 13 13 14 13 13 13 14 14 15 13
23 23 22 22 22 21 21 20 19 19 19 19 20 20 19 19 17 16 14 13 13 12 11 10 11 11 11 10 9 8 7 8 10 10 10 10 10 10 11 12 14 16 15 14 14 14 13 13 14 15 16 16
26 26 25 25 24 24 24 23 23 22 22 22 22 22 22 22 23 22 21 20 19 18 16 13 13 14 15 16 17 17 13 9 10 12 12 12 11 11 11 11 12 14 16 17 17 17 15 14 15 15 16 18
30 30 29 27 27 26 25 25 25 25 25 25 24 24 23 23 25 25 26 26 26 25 23 21 18 16 16 17 19 22 21 17 14 13 13 14 13 14 13 12 12 13 15 16 19 20 18 16 16 16 15 17
33 33 32 30 29 27 26 25 25 26 26 26 26 26 25 25 25 26 28 29 30 30 30 29 27 25 22 21 20 21 23 23 22 19 17 16 15 15 16 15 14 14 15 15 17 20 21 19 18 17 16 17
36 35 34 33 31 29 27 25 24 24 24 25 26 27 27 26 26 27 28 29 29 30 31 32 32 32 31 29 28 26 24 24 25 25 23 20 18 17 18 18 17 16 16 16 17 19 21 21 20 20 19 18
38 37 36 34 33 30 28 26 24 23 22 23 24 26 28 27 27 27 28 28 28 28 28 30 32 33 34 35 34 34 32 28 27 28 28 25 22 20 19 20 20 19 18 17 18 19 21 22 22 23 23 22
39 38 37 35 34 32 29 27 25 23 21 22 22 24 27 28 27 27 27 28 29 28 28 29 30 31 32 32 32 33 34 33 31 30 30 27 25 23 22 21 21 22 20 19 19 19 21 22 23 24 25 25
39 38 36 35 33 31 30 28 25 23 21 21 21 23 27 28 28 28 27 28 29 29 28 29 30 30 30 28 28 28 29 31 32 31 31 29 27 25 24 23 23 23 23 21 20 21 21 22 24 24 24 26
37 35 34 32 31 30 28 27 24 22 21 21 24 26 28 29 29 28 27 28 29 29 28 28 29 29 28 27 27 27 26 27 28 29 30 30 28 26 24 24 24 24 24 23 23 23 23 24 25 25 25 26
34 32 30 29 28 27 27 25 23 22 21 23 26 28 28 28 29 28 28 28 28 28 28 27 27 27 26 26 26 26 25 25 25 26 27 28 29 27 25 24 24 24 25 25 25 25 26 27 27 27 27 28
31 29 29 27 26 26 26 25 24 22 22 23 26 27 28 28 29 29 28 27 27 27 26 25 25 25 26 26 25 25 25 25 24 24 24 25 26 27 27 25 24 24 25 27 27 27 28 29 30 29 29 30
29 28 28 27 27 27 26 26 25 25 24 24 25 26 28 28 30 29 27 25 26 26 25 24 24 24 25 25 24 25 24 24 23 22 23 23 22 23 26 26 25 24 25 27 28 29 30 31 32 32 31 32
28 28 27 27 28 28 28 28 27 28 28 27 27 27 27 28 29 28 25 23 21 22 24 24 24 24 24 24 24 24 24 24 23 23 24 23 21 20 22 23 24 25 25 26 28 30 31 31 32 34 34 34
28 27 27 27 28 29 30 31 31 31 31 30 29 29 29 29 28 27 25 22 19 19 22 23 24 23 23 24 23 24 24 23 22 22 23 24 24 22 21 21 21 23 25 25 27 30 31 32 32 34 35 36
26 26 27 27 26 27 28 32 36 36 35 33 33 31 30 30 29 28 25 23 21 19 20 22 23 23 23 24 23 23 24 22 20 20 22 23 24 23 22 21 19 20 22 25 26 29 31 33 33 34 35 37
25 25 25 26 26 27 28 33 37 38 39 37 36 33 31 30 29 28 26 24 21 19 19 20 22 24 24 23 23 23 23 23 23 22 23 23 23 24 23 20 17 16 18 20 22 24 27 30 32 34 35 36
26 23 22 24 26 27 28 31 33 36 39 39 39 37 33 30 28 27 26 24 21 20 20 21 23 24 24 22 21 21 23 24 25 24 23 23 23 22 22 21 19 17 16 15 15 16 18 21 25 30 35 38
24 22 24 26 27 29 31 33 33 34 34 33 34 34 34 33 31 29 28 27 25 24 25 25 26 25 24 23 20 19 21 22 22 21 20 20 21 20 19 20 19 18 18 16 13 12 15 15 15 20 27 34
20 21 24 26 26 29 32 31 29 28 26 24 24 26 30 33 32 29 31 34 34 31 30 30 29 28 25 24 22 18 18 18 18 18 17 17 18 19 19 19 18 18 18 18 16 13 13 12 12 15 17 20
20 22 23 23 23 23 24 24 22 22 22 20 21 23 26 28 30 33 37 39 40 37 33 32 32 31 28 26 23 20 18 18 16 16 17 17 17 18 18 19 19 18 18 18 18 17 15 11 11 14 12 10
23 23 22 21 20 21 21 22 22 23 23 23 23 25 26 28 33 40 44 40 37 35 32 31 31 32 31 27 24 21 18 17 16 15 16 16 16 17 17 17 18 18 18 18 18 19 20 17 15 13 11 10
24 23 21 19 19 20 21 22 23 23 25 26 27 29 32 35 37 40 39 33 30 30 28 28 29 32 32 30 27 21 18 18 17 15 16 18 19 18 17 17 18 17 17 18 19 19 21 21 21 20 17 14

ECMWFFLT2_850_spd_033.txt.gz
Wind_Speed
8 8 7 6 4 5 8 9 10 10 9 9 9 9 9 9 10 11 11 13 14 13 11 11 12 11 13 15 11 14 17 16 16 14 14 15 16 15 14 13 12 13 15 16 15 11 10 11 10 7 5 5
11 11 10 8 7 6 5 5 6 8 8 8 8 8 10 10 10 11 10 11 12 12 10 9 9 8 11 15 12 13 16 16 14 15 15 15 16 16 15 14 12 13 13 15 15 11 10 11 12 8 5 3
13 12 11 9 9 8 7 6 5 6 7 7 7 6 7 7 8 10 10 10 11 10 8 6 6 5 7 11 12 13 15 16 15 15 16 15 16 16 15 14 13 13 12 14 14 9 9 13 13 11 6 3
13 13 11 10 10 10 9 9 8 7 6 6 7 6 5 4 4 5 7 9 10 9 6 4 4 3 2 4 8 9 12 16 16 16 16 15 16 17 15 13 13 13 12 14 14 10 10 13 13 12 9 5
15 14 13 11 10 9 9 9 8 8 7 6 6 7 6 5 3 2 4 4 6 6 4 3 4 4 3 2 2 4 5 10 15 17 16 14 15 17 16 14 12 12 11 13 15 12 11 13 13 13 11 7
18 17 16 15 13 11 10 9 8 8 8 8 7 7 7 6 6 6 5 4 4 4 3 1 2 5 7 6 4 2 3 3 8 14 15 16 16 16 15 14 12 10 11 13 16 14 11 12 13 15 12 8
21 21 20 19 18 16 13 12 11 10 10 9 9 8 8 8 7 8 8 8 8 6 5 3 3 3 6 8 6 4 3 2 3 6 9 14 17 16 15 14 12 10 11 13 15 13 11 11 12 14 12 10
24 24 23 23 22 20 18 18 16 14 13 12 11 10 10 9 7 7 7 8 10 11 10 8 6 3 5 9 9 6 5 3 2 2 4 8 12 14 15 14 14 13 11 12 16 14 11 10 11 12 12 12
26 26 25 26 25 22 22 22 20 19 18 16 15 13 12 12 10 8 7 7 8 9 11 11 10 9 8 12 13 10 8 7 4 3 2 4 8 11 12 12 13 15 13 11 15 15 11 10 10 11 12 13
27 28 28 28 28 24 24 23 21 21 21 20 19 18 16 15 15 14 12 11 9 8 10 11 11 12 12 14 15 14 13 11 9 7 5 3 5 7 9 10 10 13 15 13 14 14 13 11 10 11 12 14
29 30 29 30 29 26 26 25 23 22 22 20 19 20 20 19 18 18 17 16 15 12 11 11 11 12 13 14 15 15 16 15 14 13 10 7 5 4 7 8 8 9 13 14 14 14 14 12 10 10 12 14
31 31 30 31 30 28 27 27 25 24 21 18 17 19 21 22 21 20 20 19 20 18 17 16 14 14 14 15 15 16 16 15 17 17 15 13 10 7 6 7 7 8 10 12 14 15 15 14 11 11 12 14
31 32 32 32 31 28 28 28 27 25 20 16 15 16 20 25 24 21 20 20 21 22 21 20 19 18 17 17 18 18 18 16 16 17 18 18 16 14 11 8 8 8 9 11 13 15 17 18 16 14 13 13
33 32 32 32 31 28 28 29 28 25 21 17 15 14 18 23 23 22 22 20 20 22 22 23 22 22 21 21 21 21 21 19 18 18 17 18 20 20 18 14 11 9 9 11 12 14 15 17 18 18 16 15
35 34 33 32 32 29 28 29 27 24 21 18 14 14 17 20 21 22 22 20 20 21 22 23 22 23 24 23 23 23 24 23 21 21 19 18 18 21 23 21 17 13 12 12 12 14 15 15 17 19 19 18
37 36 35 33 32 30 29 28 25 23 20 17 15 16 18 20 21 21 20 19 19 21 23 22 20 21 22 22 21 21 24 25 25 24 23 22 20 19 22 24 23 19 16 15 15 15 16 16 17 19 20 21
38 37 36 35 33 31 30 28 26 22 18 16 17 17 18 19 19 19 18 18 19 22 22 21 20 19 19 19 18 18 21 24 25 26 26 25 24 22 21 22 24 24 21 18 18 18 18 18 18 19 21 22
35 34 34 34 33 32 31 29 26 23 18 17 18 17 17 17 17 17 18 18 19 21 20 20 19 18 17 16 15 17 20 21 21 24 25 26 26 26 25 23 22 24 25 23 21 20 20 20 21 21 21 23
29 29 30 30 31 30 30 30 28 25 22 21 19 17 17 16 17 17 18 19 19 18 18 19 18 16 16 15 16 18 19 17 17 20 21 22 24 26 27 26 24 23 25 26 25 22 21 22 22 23 24 24
22 23 23 23 24 23 24 26 25 25 25 24 22 20 18 17 18 20 21 21 19 17 18 18 17 16 16 16 18 18 17 16 17 16 16 17 20 23 25 27 27 26 25 25 26 25 24 24 25 25 26 26
18 19 19 18 17 16 17 18 18 20 23 25 25 23 20 20 22 23 24 23 20 18 17 18 18 18 17 17 17 18 17 16 16 14 14 14 15 18 21 22 24 27 27 25 25 26 26 26 26 27 28 28
19 19 18 16 15 15 15 15 15 16 18 21 24 24 24 27 29 27 25 24 22 20 18 18 18 18 18 17 17 17 17 16 16 15 15 16 15 15 16 17 18 20 22 24 25 26 27 27 28 28 29 30
21 20 18 17 17 17 16 15 15 15 16 18 19 20 26 34 35 31 27 25 23 22 19 18 18 18 18 18 18 18 18 17 16 16 15 16 16 16 16 17 18 17 18 21 24 26 27 28 29 29 30 32
23 22 21 21 20 19 19 18 17 17 17 18 18 19 24 32 34 31 29 28 26 22 19 19 18 18 18 18 18 19 19 18 17 15 15 15 15 16 17 17 17 18 18 18 20 24 27 28 29 30 30 32
24 23 24 24 22 21 21 21 21 20 19 19 20 21 22 24 24 22 25 29 29 25 20 19 19 19 19 18 19 19 20 19 19 17 17 16 17 17 17 17 16 16 15 16 17 19 20 22 24 27 29 32
24 24 24 23 23 23 24 23 23 23 22 22 22 21 20 20 19 19 21 24 24 22 22 21 22 22 22 20 20 21 21 21 21 20 19 18 18 18 18 18 17 16 15 15 15 14 14 15 16 21 25 28
24 23 22 23 24 24 24 24 23 23 24 23 23 23 22 22 22 22 22 21 20 22 26 27 27 28 27 24 23 23 23 22 22 21 20 19 19 18 18 18 18 17 17 16 14 12 13 12 11 13 17 23
24 23 22 23 23 23 23 23 23 23 24 24 24 24 24 24 24 24 23 22 23 27 31 32 32 30 28 26 25 24 25 24 23 22 21 19 19 19 19 19 17 17 18 18 15 13 13 11 11 12 12 15
21 20 19 20 20 20 21 22 23 23 24 24 24 24 25 26 26 27 26 26 28 29 31 33 33 30 28 26 25 25 26 26 24 23 22 20 19 20 20 19 18 17 18 19 18 16 14 11 10 11 9 10
19 17 16 17 19 20 21 23 24 24 24 24 25 25 26 27 28 29 29 29 29 28 29 31 29 26 25 25 25 24 25 27 26 24 23 22 21 21 21 20 19 19 18 19 20 20 19 16 12 11 8 6
19 19 18 19 21 22 23 25 25 24 25 25 26 27 28 29 29 29 29 29 28 28 28 27 25 24 24 25 25 25 26 27 27 26 24 23 22 21 20 20 21 20 18 18 19 20 21 20 18 17 14 10

ECMWFFLT2_850_spd_036.txt.gz
Wind_Speed
14 13 12 11 10 9 8 8 7 8 9 10 10 10 11 11 10 12 10 7 5 4 6 10 13 15 14 15 16 14 13 9 9 15 19 19 19 18 18 16 15 15 15 16 15 12 10 9 7 6 5 4
14 15 14 13 13 12 10 9 8 8 8 8 8 9 10 10 10 11 12 13 14 11 7 5 6 10 14 15 14 15 16 15 12 12 16 19 20 19 18 17 15 15 14 14 15 13 12 11 8 7 6 4
14 15 15 14 13 12 11 10 9 8 8 8 7 7 8 9 9 9 10 11 13 15 14 12 10 9 9 11 10 11 13 13 13 14 15 16 17 17 17 17 16 15 14 14 14 14 12 11 10 10 8 5
16 16 17 16 14 12 13 11 9 8 8 8 7 7 7 8 9 8 8 9 10 11 12 13 14 15 12 7 5 7 9 9 9 12 15 14 13 14 15 17 17 16 15 14 14 15 13 11 11 11 9 7
19 19 19 19 17 15 16 13 10 10 9 8 7 7 6 6 7 8 9 9 9 10 9 10 10 11 12 10 6 3 5 7 6 5 11 14 13 13 14 15 16 15 15 14 14 15 14 12 12 12 11 9
22 21 21 21 20 18 19 18 14 14 12 10 9 8 8 7 6 7 8 9 10 10 11 10 9 8 8 9 8 4 2 3 3 1 6 10 12 12 12 14 15 15 14 15 15 17 16 13 13 12 12 11
24 24 23 23 23 21 21 21 19 19 17 15 14 12 11 10 9 8 7 8 9 10 11 12 11 10 8 8 8 6 2 1 2 2 1 7 10 11 12 13 15 16 15 16 16 18 18 14 13 13 13 13
27 27 26 26 25 24 23 23 22 22 21 19 18 17 15 14 13 12 9 8 7 7 8 10 11 11 11 10 9 8 5 2 2 3 4 1 6 8 11 13 14 16 15 15 15 18 18 14 14 14 13 13
29 29 28 28 28 27 26 25 24 24 23 21 20 21 20 18 17 17 15 12 10 8 7 8 9 10 10 11 12 12 9 7 5 3 6 7 3 4 8 10 13 16 15 13 13 16 17 14 14 15 14 14
30 30 30 30 29 29 28 27 26 25 24 21 19 19 22 22 20 20 18 17 16 14 12 9 8 9 9 10 12 13 14 12 9 8 6 8 9 5 5 6 9 14 16 14 13 16 18 16 15 16 16 15
31 32 32 32 31 31 30 29 28 27 26 22 18 17 20 23 23 23 22 20 20 19 18 15 12 11 10 9 9 11 13 15 13 12 11 9 8 8 8 8 7 9 13 14 15 17 19 18 16 17 17 17
33 34 34 33 33 32 31 30 29 28 26 23 20 16 17 22 24 25 24 23 22 21 21 20 18 16 13 11 10 11 11 13 14 13 14 13 12 9 9 11 11 9 9 13 15 15 18 18 17 17 18 18
35 36 36 35 34 33 32 31 30 28 26 24 20 14 15 21 24 24 24 24 23 23 22 22 22 20 18 15 13 13 11 12 12 13 14 15 16 14 12 14 14 13 11 9 12 14 17 19 17 17 18 18
38 38 38 37 35 33 32 31 29 28 26 23 20 16 17 21 23 24 23 23 23 23 23 23 24 22 20 19 17 15 12 13 12 13 14 14 16 17 15 16 17 15 14 12 11 12 16 19 19 18 18 19
38 38 38 37 35 33 32 31 29 27 25 22 20 19 20 20 21 22 21 21 22 23 24 24 23 22 21 20 18 16 14 13 13 13 14 15 16 17 17 17 18 19 17 14 13 13 15 17 19 19 19 19
34 35 35 35 34 32 31 30 29 27 24 22 21 21 21 20 20 20 20 21 22 23 24 24 23 23 21 19 17 16 15 14 14 13 13 14 17 18 19 19 19 19 19 18 15 14 15 16 17 18 19 20
28 30 30 30 29 29 28 28 28 28 26 23 21 20 20 19 19 20 21 22 23 24 24 24 22 22 21 18 15 14 14 16 17 15 13 12 16 18 19 21 22 20 19 18 19 18 16 16 17 18 19 20
24 25 24 25 25 24 24 23 24 26 26 24 23 21 19 19 19 20 22 23 23 23 23 22 21 20 21 18 15 15 16 19 19 16 13 13 13 15 18 21 23 23 22 18 19 21 21 19 18 19 20 20
24 22 21 22 22 22 21 20 20 21 21 22 23 22 21 20 20 21 22 22 23 23 22 22 20 19 18 18 19 19 18 19 19 17 14 13 13 13 16 19 20 22 24 22 19 20 21 22 21 20 20 22
24 21 21 21 20 20 18 17 19 19 18 20 21 21 21 20 21 23 22 22 23 24 23 22 21 19 17 17 19 21 20 19 19 18 15 12 11 13 15 18 20 21 22 24 22 20 20 22 24 23 21 22
23 23 25 22 20 20 17 17 18 17 17 19 20 21 21 20 20 22 24 25 24 23 23 22 22 21 19 16 17 19 20 19 18 16 16 15 12 12 14 16 19 20 21 23 24 23 21 21 24 26 25 23
23 25 25 21 21 22 19 19 19 18 17 17 19 20 21 20 20 21 24 25 23 20 20 20 20 20 19 17 16 18 19 19 18 17 18 19 16 14 15 17 17 18 19 22 24 25 24 21 22 25 28 28
22 23 23 21 23 23 20 20 20 18 17 18 19 20 19 18 20 24 23 20 18 18 19 18 18 18 18 17 17 19 20 18 18 18 18 18 18 17 17 19 20 20 21 22 24 26 26 25 23 23 26 29
23 22 22 23 24 23 21 21 20 19 19 19 19 20 20 21 22 23 22 19 18 20 20 18 17 16 16 17 19 21 22 21 18 17 18 18 18 18 19 19 20 21 21 22 25 26 26 27 27 25 24 26
25 24 23 24 25 23 22 22 21 21 20 20 20 20 21 22 23 22 21 21 21 22 21 20 18 19 19 20 21 22 24 24 22 18 18 19 20 20 22 22 20 19 18 20 23 25 26 26 26 26 25 24
22 22 22 23 23 22 22 22 22 22 21 21 21 21 21 22 22 22 22 22 22 23 23 23 24 25 26 26 25 26 26 25 25 24 22 21 22 22 23 25 23 19 18 20 22 22 24 25 25 25 25 24
21 21 22 24 22 20 20 20 20 20 20 20 21 22 23 23 23 23 23 23 23 24 24 25 28 29 30 29 28 28 27 26 26 26 25 23 23 23 25 26 24 21 19 21 22 20 21 22 21 20 21 23
24 24 23 24 23 21 19 17 17 18 19 20 21 23 24 23 24 24 24 25 25 25 26 27 28 29 31 31 29 28 27 26 25 25 25 24 23 24 26 27 25 21 19 21 21 20 21 20 17 17 17 18
24 24 24 24 24 23 22 20 20 21 21 22 24 25 24 24 24 25 26 27 28 28 29 29 28 28 30 29 27 25 24 25 25 25 24 24 25 25 26 27 26 23 21 22 23 23 22 18 15 17 17 14
25 26 28 28 26 25 24 24 23 23 24 25 26 26 27 27 27 27 29 28 28 28 27 27 27 26 27 27 24 22 23 24 25 26 25 25 26 27 27 26 27 27 24 24 25 26 27 23 17 15 14 13
28 28 28 27 25 25 24 24 24 24 26 26 27 27 27 28 28 27 28 27 27 27 26 26 26 26 27 27 25 24 25 26 25 24 25 25 26 27 27 27 29 29 27 27 28 27 27 28 26 21 18 14

ECMWFFLT2_850_spd_039.txt.gz
Wind_Speed
14 15 15 12 12 12 12 12 12 11 10 9 9 10 10 12 13 14 12 11 9 8 6 4 5 5 5 8 13 16 18 17 13 15 13 10 18 23 22 21 18 17 16 17 17 16 14 10 10 9 7 7
17 18 18 17 15 15 14 12 12 12 11 11 10 9 9 10 10 12 12 12 12 12 11 9 10 10 8 3 6 7 11 17 17 18 15 13 17 22 23 21 19 17 17 16 17 17 15 12 12 10 8 8
18 19 19 19 19 18 18 16 14 13 12 11 10 10 10 10 9 9 10 11 12 13 13 13 12 12 13 10 8 4 3 6 13 18 17 14 15 19 20 20 18 17 16 16 17 16 15 14 14 12 10 9
19 19 20 19 19 19 20 20 19 18 16 12 10 10 11 10 9 8 8 8 9 10 12 13 12 12 13 13 14 13 10 8 5 10 16 16 15 16 18 18 18 18 15 15 17 17 17 17 16 13 11 10
21 21 21 21 20 19 20 20 20 20 19 16 12 10 10 10 10 10 9 8 8 9 9 11 12 12 12 12 14 16 15 13 11 7 9 16 17 15 17 18 19 20 17 15 16 18 19 19 16 14 12 12
24 23 23 23 23 21 21 21 21 22 21 20 18 15 12 11 12 12 11 10 9 9 9 9 10 11 12 12 13 14 14 13 12 11 10 10 13 15 17 18 19 21 21 18 16 18 20 20 17 15 15 13
26 26 25 25 25 24 24 23 23 23 23 23 23 21 17 14 14 15 14 13 12 10 8 8 9 10 10 11 12 13 13 12 11 10 12 11 8 9 14 18 18 19 21 20 18 17 19 20 18 16 17 16
29 29 28 28 28 28 27 26 25 25 24 24 24 23 21 19 18 18 17 16 15 12 10 8 7 8 9 10 11 12 12 12 12 10 11 12 11 7 8 16 18 17 19 20 20 19 18 19 19 19 18 17
32 31 31 30 30 30 30 29 28 27 26 25 25 24 23 23 22 22 21 20 18 17 14 12 9 9 8 8 9 10 11 12 12 13 12 12 13 12 7 7 14 15 16 19 21 22 20 19 21 21 20 18
33 33 32 32 32 32 32 30 29 28 27 26 25 25 25 24 25 24 24 23 22 20 18 16 14 13 11 9 9 9 9 11 11 13 14 13 13 14 12 8 7 9 11 15 19 22 22 20 21 22 21 20
31 31 31 31 31 31 32 31 29 28 27 26 24 24 25 25 25 26 25 25 24 23 21 20 19 18 16 13 11 9 8 9 10 11 12 14 14 14 14 13 11 8 6 8 14 19 20 19 21 23 21 21
28 28 29 30 31 31 32 32 29 26 23 22 22 22 23 23 25 26 26 26 25 25 24 23 23 22 20 18 15 12 10 8 9 10 10 12 14 15 16 16 15 14 9 6 8 14 16 16 18 22 23 24
30 31 32 33 34 33 33 32 30 27 22 19 18 19 19 20 22 24 26 26 26 26 25 25 24 24 23 21 19 16 13 11 11 11 11 11 13 15 16 18 19 18 15 11 7 8 11 11 13 18 23 25
31 33 34 35 35 34 33 32 31 29 25 20 16 15 15 17 19 21 23 24 25 25 25 25 24 24 24 22 20 19 17 14 12 12 12 11 12 14 16 17 19 20 21 17 12 8 8 8 8 12 17 22
30 31 32 33 33 32 31 31 31 30 27 24 19 15 13 13 15 17 19 21 23 24 24 24 24 24 24 23 20 19 19 17 15 13 12 12 12 14 16 17 18 20 22 22 18 13 10 9 9 9 12 15
28 29 31 32 31 29 29 29 29 27 25 24 22 20 16 13 13 15 16 18 19 21 23 23 23 22 22 22 21 20 19 18 18 16 13 13 13 14 15 17 18 19 22 23 22 19 14 12 11 12 12 12
28 29 32 32 31 28 28 26 25 25 23 22 22 22 22 18 16 16 16 17 18 19 21 22 22 21 20 20 20 20 19 19 19 19 18 15 14 14 14 15 16 18 20 22 23 22 19 17 14 14 14 14
24 27 29 32 31 29 29 26 23 25 23 21 21 21 22 22 21 21 21 20 20 19 19 20 20 20 19 18 19 19 19 20 19 19 20 18 15 15 14 13 14 15 18 20 22 23 22 20 19 17 16 16
19 21 21 25 28 28 30 27 23 24 22 21 21 19 20 22 23 24 23 22 22 22 22 21 20 19 18 17 17 18 18 19 19 19 19 18 17 16 15 14 13 13 15 18 21 23 23 22 21 20 19 19
20 18 16 18 21 23 26 26 23 22 21 21 19 18 18 20 23 23 22 22 25 26 24 22 21 19 18 16 16 17 18 18 18 18 18 17 16 17 16 15 14 14 15 16 19 21 24 25 24 23 22 22
23 22 20 18 17 17 19 20 22 20 18 17 16 15 17 19 21 21 22 24 25 26 25 24 23 20 17 17 17 17 18 18 17 17 18 18 16 16 16 16 16 16 16 16 17 19 22 26 28 27 23 23
28 27 26 24 21 17 15 15 17 17 14 13 14 14 15 16 18 19 21 23 24 23 23 24 24 24 20 18 18 18 18 18 18 16 16 18 18 16 16 17 18 18 18 19 19 20 21 23 27 29 26 23
27 27 27 27 25 22 18 13 13 14 15 16 18 18 16 16 18 19 21 21 20 19 18 21 23 25 24 22 21 20 20 19 19 19 18 18 19 18 17 17 18 19 20 22 23 23 23 23 25 28 28 26
25 24 24 24 24 23 21 17 14 14 15 17 19 20 19 19 21 22 21 19 18 16 16 19 21 23 25 26 26 26 26 25 24 23 22 21 21 21 20 18 17 18 20 23 26 26 27 26 25 26 28 30
26 25 25 25 24 23 22 21 19 18 17 16 17 19 20 21 22 23 22 20 21 21 21 22 23 24 25 26 28 29 30 31 31 29 27 25 23 23 23 21 19 17 18 22 25 26 27 27 26 26 26 29
27 27 27 28 28 27 25 24 23 21 19 17 17 17 19 20 21 22 23 23 24 25 27 27 27 27 27 27 28 30 32 33 34 33 29 26 24 23 25 25 22 17 17 20 23 24 26 27 27 26 26 27
28 28 28 28 29 30 31 30 27 25 23 21 19 19 19 19 21 22 24 25 25 27 29 30 30 29 29 29 30 32 32 31 32 29 24 21 21 23 24 26 25 20 17 19 21 21 24 27 26 26 25 25
26 28 29 30 30 32 33 32 29 27 25 24 23 23 23 22 24 25 26 27 27 28 29 30 31 32 32 32 32 31 29 28 27 25 21 19 20 22 24 26 25 22 19 18 19 19 21 21 20 22 23 22
27 28 30 31 31 32 29 24 21 21 22 23 24 25 26 27 29 30 32 33 33 32 33 33 34 34 33 32 29 27 27 26 25 24 23 22 22 22 23 25 26 24 21 19 19 21 24 20 16 17 19 19
29 29 30 29 28 27 24 21 19 19 20 22 24 26 28 29 31 33 34 35 34 34 33 33 33 32 30 29 27 27 28 27 26 26 25 25 25 25 25 26 28 27 24 22 21 23 28 26 22 22 20 20
27 26 26 25 25 22 19 20 22 21 22 23 25 28 29 31 33 34 34 34 34 33 32 32 32 31 31 31 31 31 31 31 30 30 29 28 28 27 27 28 30 29 26 25 24 24 28 31 30 29 26 25

ECMWFFLT2_850_spd_045.txt.gz
Wind_Speed
25 26 27 27 27 27 28 28 30 30 29 27 27 28 29 26 23 23 27 30 30 28 28 27 25 24 23 24 24 19 12 9 9 7 6 8 12 16 16 16 17 19 21 23 24 25 24 21 20 19 18 16
26 27 29 29 29 29 30 30 31 32 32 30 28 27 28 28 25 22 23 27 28 27 28 29 28 26 24 24 25 22 17 13 12 12 11 9 9 12 14 15 15 16 19 22 23 24 26 24 23 21 19 17
27 28 30 30 31 31 31 31 32 32 32 31 30 28 28 28 27 24 23 24 26 25 25 27 29 28 26 26 26 23 19 16 15 14 14 14 12 10 10 13 14 15 16 20 23 24 26 27 26 24 20 18
27 28 29 30 31 31 30 30 31 31 32 32 31 29 28 29 29 27 24 24 25 25 23 24 25 26 26 26 27 25 20 17 17 16 16 16 16 13 10 10 13 13 13 18 22 23 25 28 28 26 24 19
29 29 28 30 30 31 31 30 30 30 31 32 32 30 29 28 29 29 27 25 25 26 24 23 24 24 24 25 26 27 24 19 18 18 17 16 18 17 14 11 11 10 10 13 19 23 23 28 30 29 27 22
30 30 29 28 29 29 30 30 29 29 29 30 31 31 30 29 28 28 28 27 26 27 27 24 23 23 23 23 23 25 25 23 21 20 19 17 18 19 17 15 13 11 10 8 13 19 19 25 32 30 27 24
29 28 28 27 27 27 28 28 28 28 28 28 29 30 30 29 28 27 27 27 27 27 28 27 25 23 23 22 21 21 21 23 22 23 22 19 19 20 19 19 17 14 11 8 8 12 15 23 31 30 28 26
29 27 26 26 26 27 27 27 27 27 27 27 28 28 29 28 28 28 27 27 27 26 28 29 27 25 24 23 22 20 19 18 19 21 22 22 21 21 20 20 20 18 14 11 9 7 11 20 27 29 30 29
31 29 26 25 26 27 27 28 28 28 28 28 29 28 28 27 27 28 28 27 27 27 26 28 29 27 25 25 23 22 20 18 17 17 18 20 21 22 21 20 20 21 19 14 11 9 7 12 20 27 31 30
31 28 27 27 28 29 29 30 31 30 30 30 31 31 29 27 26 26 27 27 27 27 26 26 27 28 26 26 25 23 22 20 18 17 16 16 17 19 21 21 21 21 22 18 14 12 10 7 11 20 28 31
29 26 27 28 29 31 31 32 32 31 31 31 32 33 31 29 27 26 26 26 27 27 26 26 26 27 27 26 26 25 23 21 19 18 17 16 15 15 17 20 23 23 22 21 18 15 14 12 8 11 19 26
27 26 26 27 29 30 30 31 31 30 31 31 32 33 31 29 28 27 26 25 25 26 26 26 25 25 26 26 26 25 24 22 21 19 18 18 16 14 14 15 20 24 24 23 21 18 16 15 13 11 12 18
26 25 26 27 28 28 29 30 30 30 31 32 32 32 30 28 28 28 27 26 25 25 25 25 25 25 25 25 25 25 25 24 22 21 19 19 18 17 14 13 15 20 23 24 24 22 19 18 17 15 14 13
25 25 27 28 28 28 29 30 31 31 32 32 32 32 29 25 26 27 27 27 27 27 26 25 24 24 24 24 24 25 24 24 24 22 21 20 19 19 17 15 14 15 18 22 24 24 22 20 19 18 18 17
26 27 28 29 29 30 31 32 32 32 32 32 31 30 28 24 22 24 25 26 27 28 27 26 25 24 24 24 24 25 24 23 23 23 22 22 21 21 19 18 17 16 15 17 21 23 24 23 22 20 21 22
28 30 30 32 33 34 35 33 31 31 30 31 29 28 27 24 21 21 22 23 25 26 27 27 27 26 25 25 25 25 25 24 23 23 22 23 22 22 21 20 19 19 17 17 18 20 22 23 24 23 22 23
31 32 34 35 36 37 36 33 30 29 29 29 28 26 24 23 21 19 19 21 23 23 24 26 27 28 27 27 26 26 26 25 24 24 23 23 23 23 23 22 21 21 20 19 18 19 20 21 22 24 24 24
34 35 36 37 38 37 35 33 32 30 30 28 26 25 23 22 20 19 19 22 24 23 23 24 26 28 29 29 28 27 27 26 26 25 25 24 25 25 25 24 23 22 23 22 21 20 20 20 21 22 24 25
36 37 38 38 37 36 35 34 33 31 30 28 25 23 22 20 18 19 21 23 24 22 22 23 24 26 28 30 30 30 29 28 28 27 26 26 26 26 26 26 25 24 24 24 24 23 21 21 21 21 22 24
38 38 38 37 36 35 35 34 32 28 26 25 23 20 19 18 18 18 20 21 21 22 22 22 23 25 27 29 30 32 32 31 30 29 28 28 28 28 27 27 27 27 26 26 26 26 25 22 22 22 22 23
37 37 37 37 36 36 35 33 29 25 24 23 22 19 17 18 19 19 18 19 20 21 22 23 24 25 26 28 30 32 33 33 33 32 32 31 30 29 29 29 29 29 29 29 28 28 27 25 24 24 23 22
35 36 37 37 37 36 34 31 28 26 24 23 23 22 21 22 22 20 19 19 19 20 22 23 24 25 27 28 29 31 32 34 34 34 34 34 32 31 31 30 30 30 31 32 32 30 29 28 27 25 25 24
35 36 37 37 37 36 33 31 29 27 25 23 24 26 27 29 28 24 22 21 21 21 22 24 25 26 27 29 30 31 33 34 35 36 36 36 35 33 33 32 31 31 32 33 34 33 32 31 30 28 26 26
36 37 37 37 36 35 34 33 30 27 25 23 23 25 28 30 30 28 26 25 23 23 24 25 26 27 28 29 30 31 33 34 35 36 37 38 38 37 36 35 33 32 32 34 35 36 34 32 32 31 29 27
37 37 36 35 34 33 33 31 30 27 24 23 21 22 24 27 28 29 29 28 27 25 25 26 27 28 29 30 31 32 34 34 36 37 38 39 40 40 39 37 35 32 32 33 35 36 37 35 32 31 30 28
35 33 32 31 30 29 29 28 27 25 22 21 21 19 21 24 26 28 29 30 29 28 28 29 29 30 31 32 33 34 35 36 37 38 39 40 40 40 38 36 34 32 30 29 29 31 35 35 32 30 27 24
31 30 28 28 27 26 26 25 23 22 21 20 20 20 20 22 24 25 27 28 29 30 31 31 32 32 33 35 36 37 38 39 39 40 39 38 37 36 35 33 32 29 26 24 24 24 25 26 26 27 26 22
28 27 26 26 26 24 23 22 20 19 19 17 17 18 19 22 24 25 25 26 28 30 31 32 33 34 35 36 37 38 39 38 37 36 35 33 31 31 30 30 30 27 24 22 21 18 16 17 17 19 22 23
26 25 26 26 26 23 21 19 17 17 17 15 14 14 15 17 20 22 23 24 25 28 30 31 32 33 34 35 35 34 33 32 31 29 27 26 25 24 24 26 27 27 26 23 19 16 16 13 10 13 19 24
26 25 25 27 27 24 21 18 16 16 16 15 14 13 13 13 13 15 17 19 20 23 25 27 28 29 29 29 28 28 27 26 25 24 23 21 20 19 19 21 24 26 26 25 22 20 19 15 12 16 19 20
26 25 25 26 26 24 21 19 16 15 15 15 14 13 13 12 12 12 13 14 15 17 19 21 22 23 24 24 24 24 24 24 22 22 21 19 18 18 17 18 21 23 23 24 25 23 22 21 19 20 19 17